CET,Max TemperatureF,Mean TemperatureF,Min TemperatureF,Max Dew PointF,MeanDew PointF,Min DewpointF,Max Humidity, Mean Humidity, Min Humidity, Max Sea Level PressureIn, Mean Sea Level PressureIn, Min Sea Level PressureIn, Max VisibilityMiles, Mean VisibilityMiles, Min VisibilityMiles, Max Wind SpeedMPH, Mean Wind SpeedMPH, Max Gust SpeedMPH,PrecipitationIn, CloudCover, Events, WindDirDegrees
2012-11-1,51,48,44,48,43,39,100,84,70,29.18,29.01,28.91,19,7,6,21,16,33,0.08,5,Rain,185
2012-11-2,48,45,42,45,40,39,93,84,73,29.42,29.30,29.12,19,6,6,28,19,36,0.08,5,Rain,207
2012-11-3,49,46,42,45,41,37,100,86,62,29.56,29.45,29.36,14,6,6,22,13,33,0.04,5,Rain,208
2012-11-4,48,42,37,45,41,37,100,89,72,29.57,29.43,29.27,17,6,3,25,11,36,0.39,6,Rain,181
2012-11-5,51,45,39,45,42,36,100,89,58,29.83,29.58,29.36,17,6,4,18,10,,0.04,6,Rain,266
2012-11-6,51,42,34,50,41,35,100,90,60,30.06,30.00,29.86,19,6,3,20,8,30,0.12,5,Rain,261
2012-11-7,51,48,46,52,48,44,100,90,75,30.22,30.16,30.04,11,6,2,20,11,,0.00,8,Rain,256
2012-11-8,54,52,49,50,47,45,94,86,76,30.15,30.04,30.01,19,7,6,18,14,25,0.01,8,Rain,242
2012-11-9,52,50,48,47,44,41,87,81,68,30.04,29.90,29.65,17,7,6,14,9,,0.00,8,,187
2012-11-10,53,50,47,52,50,45,100,97,86,29.66,29.50,29.42,9,5,2,13,11,23,0.12,7,Rain,185
2012-11-11,51,46,42,48,45,43,100,94,82,30.07,29.82,29.53,19,6,3,12,8,,0.00,5,Rain,212
2012-11-12,47,44,41,45,43,41,100,94,81,30.28,30.20,30.09,12,4,1,15,10,,0.02,7,,189
2012-11-13,50,48,45,50,48,45,100,99,93,30.43,30.36,30.27,6,3,0,16,12,,0.00,8,Fog-Rain,186
2012-11-14,53,44,35,48,42,36,100,84,47,30.43,30.35,30.27,19,7,3,9,5,,0.00,8,,106
2012-11-15,42,36,29,41,36,30,100,94,80,30.28,30.22,30.15,4,2,0,9,4,,0.00,8,Fog-Rain,116
2012-11-16,41,40,38,38,36,34,93,87,78,30.15,30.04,29.89,4,3,3,10,6,,0.00,7,,160
2012-11-17,48,42,36,48,42,36,100,96,83,29.89,29.80,29.77,6,3,0,13,9,,0.04,8,Fog-Rain,182
2012-11-18,50,41,32,48,42,32,100,94,60,30.05,29.92,29.80,16,4,0,7,2,,0.01,6,Fog-Rain,293
2012-11-19,51,38,26,50,40,27,100,99,88,30.05,29.98,29.92,6,2,0,14,5,,0.00,7,Fog-Snow,161
2012-11-20,54,50,46,50,47,45,100,90,72,29.98,29.95,29.95,18,6,3,17,12,,0.00,4,,172
2012-11-21,50,46,41,46,42,37,100,88,78,29.98,29.85,29.77,15,7,6,33,13,46,0.04,7,Rain,169
2012-11-22,52,48,44,45,43,41,100,86,68,30.11,30.04,29.95,19,7,6,18,14,28,0.00,4,,189
2012-11-23,47,41,33,46,42,34,100,92,75,30.04,29.93,29.83,7,5,0,20,13,,0.20,7,Fog-Rain,187
2012-11-24,48,39,30,48,39,30,100,100,93,30.08,29.98,29.68,5,1,0,16,5,,0.16,8,Fog-Rain,99
2012-11-25,53,50,46,52,45,39,100,80,53,29.79,29.65,29.47,19,7,3,34,21,52,0.04,6,Rain,204
2012-11-26,51,47,43,48,44,41,94,87,73,29.77,29.60,29.50,17,7,6,15,12,23,0.02,5,Rain,173
2012-11-27,48,42,37,45,41,36,100,87,74,29.71,29.60,29.50,18,6,1,13,8,,0.00,6,Rain,170
2012-11-28,48,42,36,43,40,37,100,89,66,29.77,29.73,29.71,19,6,1,12,4,,0.04,6,Fog-Rain,345
2012-11-29,45,38,32,39,35,30,100,86,59,29.77,29.74,29.71,19,7,6,12,6,,0.02,4,Rain,347
2012-11-30,44,36,27,39,34,27,100,92,71,29.86,29.80,29.77,12,5,0,12,4,,0.08,6,Fog-Rain,231